STARLINK-2280, 47861

Orbit data source: Space-Track

STARLINK-2280, 47861 is a payload satellite owned by SpaceX/Seattle (US) in LEO that was launched on Sun, 14 Mar 2021 UTC via an FALCON 9 launch vehicle from the Air Force Eastern Test Range (AFETR). Payload-class satellites include a variety of spacecraft equipped with specific instruments for various scientific and technological missions. These include communications satellites like Starlink; space stations such as the ISS; scientific satellites like the Hubble; Earth observation satellites from companies like Planet Labs, Umbra, and HawkEye 360; GPS; miniature CubeSats for education and research; and military/defense satellites.

Loading next visibility...
Identifier
47861, 2021-021B
Orbit
LEO
Country
Flag of USUS
Related business
Manufacturer
SpaceX/Seattle
Mission
Operational Commercial Communications
Bus & Motor
STARLINK, Unknown motor
Mass
260 kg wet, ~248 kg dry
Launch date (UTC)
2021-03-14 (5 years ago)
Launch vehicle
FALCON 9
Launch site
Air Force Eastern Test Range (AFETR)
Object type
Payload
Rocket body
Debris
Shape & HBR
Box + 1 Pan, 10.1 m
Radar Cross Section
13.562 m², Large (>1 m²)

Expand to show TLE details & history
Last TLE update: 3 days ago

TLE from 3 days ago
0 STARLINK-2280
1 47861U 21021B   26170.89703508  .00000894  00000-0  40574-4 0  9993
2 47861  53.1593 142.8335 0001543 100.8312 259.2864 15.31699623292057
Epoch: 2026-06-19T21:31Z
TLE epoch observation values (Epoch: 2026-06-19T21:31:43.830Z)
Latitude
0.00003°
Longitude
-88.21853°
Altitude
471.838 km
Speed
7.631 km/s
True Right ascension
09h 31m 20s
True Declination
0° 00' 00"
Sunlit
Object was in daylight at epoch
Visualization orbit readout
Latitude
Unknown
Longitude
Unknown
Altitude
Unknown
Speed
Unknown
Apparent Right ascension
Unknown
Apparent Declination
Unknown
Sunlit
N/A
Visualization observer readout
Local Sidereal Time
21:32:35
Azimuth
Unknown
Elevation
Unknown
Doppler factor
Unknown
Orbital elements
Apogee altitude
472.055 km
Perigee altitude
469.941 km
Semi-major axis
6,849.135 km
Eccentricity
0.00015
Inclination
53.1593°
RAAN
142.8335°
Arg. of periapsis
100.8312°
True anomaly
259.26903°
Mean anomaly
259.2864°
Eccentric anomaly
259.27771°
Mean motion
3.82904 °/min
Orbital period
94.02 mins
BSTAR
0.000040574
Loading maneuver chart data...
Computing Atmospheric mass density...

Documentation

Showing up to 5 results
|